Regional Weather Roundup
Issued by NWS

Home | Current Version | Previous Version | Graphics & Text | Print | Product List | Glossary On
Versions: 1 2 3 4 5 6 7 8 9 10 11 12 13 14 15 16 17 18 19 20 21 22 23 24 25 26 27 28 29 30 31 32 33 34 35 36 37 38 39 40 41 42 43 44 45 46 47 48 49
000
ASUS45 KSLC 141810
RWRUT

UTAH REGIONAL WEATHER ROUNDUP
NATIONAL WEATHER SERVICE SALT LAKE CITY UT
1200 PM MDT SUN SEP 14 2014

UTZ001>011-023>025-141900-

NORTHERN UTAH

CITY           SKY/WX    TMP DP  RH WIND       PRES   REMARKS
HILL AFB       MOSUNNY   78  38  24 S6        30.10R
LOGAN          SUNNY     70  45  40 N8        30.08F
OGDEN          MOSUNNY   79  39  23 VRB6      30.07S
PROVO AIRPORT  MOSUNNY   73  48  40 CALM      30.09F
SALT LAKE CITY MOSUNNY   80  36  20 CALM      30.05S
VERNAL         SUNNY     68  44  42 CALM      30.15F
WENDOVER       PTSUNNY   73  30  20 SE5       30.07S
HEBER CITY     MOSUNNY   68  45  42 CALM      30.14F
WEST JORDAN    SUNNY     81  36  19 S12       30.08F

$$

UTZ012>022-026-027-141900-

SOUTHERN UTAH

CITY           SKY/WX    TMP DP  RH WIND       PRES   REMARKS
BRYCE CANYON   SUNNY     73  36  25 VRB3      30.32F
CEDAR CITY     MOSUNNY   81  36  19 SW8       30.16F
MILFORD        SUNNY     82  37  20 S15       30.12F
MOAB/CYNLANDS  SUNNY     80  39  23 VRB7      30.09F
PRICE          MOSUNNY   75  32  20 VRB3      30.19F
ST GEORGE      PTCLDY    81  43  26 CALM      30.03F
KANAB            N/A     81  37  21 SE3       30.17F

$$

REGIONAL REPORTS     COLORADO/ARIZONA

CITY           SKY/WX    TMP DP  RH WIND       PRES   REMARKS
CRAIG, CO      SUNNY     75  41  29 NW6       30.18F
GRAND JUNCTION SUNNY     76  35  22 S7        30.14F
RIFLE          SUNNY     68  39  34 CALM      30.19F
MONTROSE       SUNNY     75  42  30 N8        30.22F
CORTEZ         SUNNY     76  47  35 E3        30.23F
PAGE, AZ       SUNNY     81  40  23 SW5       30.10F
GRAND CANYON   MOSUNNY   78  38  23 NE7       30.26S
KINGMAN        SUNNY     90  54  29 CALM      30.02F
FLAGSTAFF      SUNNY     74  45  35 E9        30.28F

$$

REGIONAL REPORTS    NEVADA/IDAHO/WYOMING

CITY           SKY/WX    TMP DP  RH WIND       PRES   REMARKS
LAS VEGAS, NV  MOSUNNY   92  46  20 VRB3      29.89F
ELY            MOSUNNY   78  31  17 SE8       30.17F
ELKO           MOSUNNY   72  25  17 W3        30.11F
POCATELLO, ID  SUNNY     72  33  24 SW5       30.08F
BURLEY         MOSUNNY   70  37  29 CALM      30.05F
EVANSTON, WY   PTSUNNY   73  31  21 W16       30.22S
ROCK SPRINGS   SUNNY     74  25  16 W20G32    30.17F

$$



USA.gov is the U.S. government's official web portal to all federal, state and local government web resources and services.